,,,PA_Meas_PMT16A,,PR_Meas_QMR101_102,,RH_Meas_QMH101,,SR_Meas_QMS101,,TA_Meas_QMH101,,GenWind,,GenWind,
date,time,status,PA,status,PR,status,RH,status,SR,status,TA,status,DirAvg,status,SpdAvg,
2012-11-26, 00:00:04,VALID,1011,VALID,0,VALID,104,VALID,0,VALID,22.8562,VALID,89,VALID,0.441406,
2012-11-26, 00:01:04,VALID,1010.97,VALID,0,VALID,104,VALID,0,VALID,22.8545,VALID,85,VALID,0.98125,
2012-11-26, 00:02:04,VALID,1010.97,VALID,0,VALID,104,VALID,0.112112,VALID,22.874,VALID,81,VALID,1.13828,
2012-11-26, 00:03:04,VALID,1010.97,VALID,0,VALID,104,VALID,0,VALID,22.8368,VALID,106,VALID,0.894531,
2012-11-26, 00:04:04,VALID,1010.95,VALID,0,VALID,104,VALID,0,VALID,22.835,VALID,89,VALID,0.864062,
2012-11-26, 00:05:04,VALID,1010.96,VALID,0,VALID,104,VALID,0.112112,VALID,22.9129,VALID,88,VALID,0.282422,
2012-11-26, 00:06:04,VALID,1010.92,VALID,0,VALID,104,VALID,0,VALID,22.8952,VALID,88,VALID,0.187891,
2012-11-26, 00:07:04,VALID,1010.9,VALID,0,VALID,104,VALID,0,VALID,22.874,VALID,90,VALID,0.478516,
2012-11-26, 00:08:04,VALID,1010.89,VALID,0,VALID,104,VALID,0,VALID,22.8952,VALID,92,VALID,0.3,
2012-11-26, 00:09:04,VALID,1010.87,VALID,0,VALID,104,VALID,0.112112,VALID,22.9129,VALID,92,VALID,0.499609,
2012-11-26, 00:10:04,VALID,1010.83,VALID,0,VALID,104,VALID,0,VALID,22.9147,VALID,93,VALID,0.301953,
2012-11-26, 00:11:04,VALID,1010.81,VALID,0,VALID,104,VALID,0.112112,VALID,22.9324,VALID,94,VALID,0.417188,
2012-11-26, 00:12:04,VALID,1010.81,VALID,0,VALID,104,VALID,0,VALID,22.874,VALID,92,VALID,0.284375,
2012-11-26, 00:13:04,VALID,1010.81,VALID,0,VALID,104,VALID,0,VALID,22.9324,VALID,89,VALID,0.139453,
2012-11-26, 00:14:04,VALID,1010.79,VALID,0,VALID,104,VALID,0,VALID,22.8935,VALID,90,VALID,0.792969,
2012-11-26, 00:15:04,VALID,1010.79,VALID,0,VALID,104,VALID,0.112112,VALID,22.874,VALID,88,VALID,0.637891,
2012-11-26, 00:16:04,VALID,1010.77,VALID,0,VALID,104,VALID,0,VALID,22.9554,VALID,90,VALID,0.409375,
2012-11-26, 00:17:04,VALID,1010.77,VALID,0,VALID,104,VALID,0,VALID,22.9164,VALID,90,VALID,0.549219,
2012-11-26, 00:18:04,VALID,1010.8,VALID,0,VALID,104,VALID,0,VALID,22.9342,VALID,90,VALID,0.453125,
2012-11-26, 00:19:04,VALID,1010.81,VALID,0,VALID,104,VALID,0,VALID,22.8969,VALID,91,VALID,0.476563,
2012-11-26, 00:20:04,VALID,1010.81,VALID,0,VALID,104,VALID,0,VALID,22.8952,VALID,90,VALID,0.653906,
2012-11-26, 00:21:04,VALID,1010.82,VALID,0,VALID,104,VALID,0,VALID,22.9147,VALID,123,VALID,0.766406,
2012-11-26, 00:22:04,VALID,1010.8,VALID,0,VALID,104,VALID,0,VALID,22.9147,VALID,124,VALID,0.664063,
2012-11-26, 00:23:04,VALID,1010.77,VALID,0,VALID,104,VALID,0,VALID,22.8757,VALID,124,VALID,0.522266,
2012-11-26, 00:24:04,VALID,1010.76,VALID,0,VALID,104,VALID,0,VALID,22.8952,VALID,123,VALID,0.166797,
2012-11-26, 00:25:04,VALID,1010.75,VALID,0,VALID,104,VALID,0,VALID,22.9342,VALID,122,VALID,0.2375,
2012-11-26, 00:26:04,VALID,1010.74,VALID,0,VALID,104,VALID,0,VALID,22.9359,VALID,114,VALID,0.369141,
2012-11-26, 00:27:04,VALID,1010.72,VALID,0,VALID,104,VALID,0,VALID,22.9147,VALID,114,VALID,0.0265625,
2012-11-26, 00:28:04,VALID,1010.73,VALID,0,VALID,104,VALID,0,VALID,22.9749,VALID,133,VALID,0.532031,
2012-11-26, 00:29:04,VALID,1010.74,VALID,0,VALID,104,VALID,0,VALID,22.9359,VALID,133,VALID,0.556641,
2012-11-26, 00:30:04,VALID,1010.75,VALID,0,VALID,104,VALID,0,VALID,22.9359,VALID,133,VALID,0.448047,
2012-11-26, 00:31:04,VALID,1010.75,VALID,0,VALID,104,VALID,0,VALID,22.9324,VALID,133,VALID,0.434375,
2012-11-26, 00:32:04,VALID,1010.76,VALID,0,VALID,104,VALID,0.112112,VALID,22.9324,VALID,133,VALID,0.08125,
2012-11-26, 00:33:04,VALID,1010.78,VALID,0,VALID,104,VALID,0,VALID,22.9342,VALID,133,VALID,0.350781,
2012-11-26, 00:34:04,VALID,1010.78,VALID,0,VALID,104,VALID,0,VALID,22.9342,VALID,114,VALID,0.527344,
2012-11-26, 00:35:04,VALID,1010.78,VALID,0,VALID,104,VALID,0,VALID,22.9342,VALID,113,VALID,0.173438,
2012-11-26, 00:36:04,VALID,1010.78,VALID,0,VALID,104,VALID,0.112112,VALID,22.9324,VALID,113,VALID,0.381641,
2012-11-26, 00:37:04,VALID,1010.77,VALID,0,VALID,104,VALID,0,VALID,22.9536,VALID,113,VALID,0.425,
2012-11-26, 00:38:04,VALID,1010.77,VALID,0,VALID,104,VALID,0,VALID,22.9324,VALID,113,VALID,0.585938,
2012-11-26, 00:39:04,VALID,1010.81,VALID,0,VALID,104,VALID,0.112112,VALID,22.9519,VALID,113,VALID,0.414844,
2012-11-26, 00:40:04,VALID,1010.81,VALID,0,VALID,104,VALID,0.112112,VALID,22.9342,VALID,113,VALID,0.449609,
2012-11-26, 00:41:04,VALID,1010.81,VALID,0,VALID,104,VALID,0,VALID,22.9731,VALID,113,VALID,0.303516,
2012-11-26, 00:42:04,VALID,1010.78,VALID,0,VALID,104,VALID,0.112112,VALID,22.9519,VALID,113,VALID,0.161719,
2012-11-26, 00:43:04,VALID,1010.77,VALID,0,VALID,104,VALID,0.112112,VALID,22.9909,VALID,113,VALID,0.129297,
2012-11-26, 00:44:04,VALID,1010.76,VALID,0,VALID,104,VALID,0.112112,VALID,22.9324,VALID,113,VALID,0.420312,
2012-11-26, 00:45:04,VALID,1010.76,VALID,0,VALID,104,VALID,0.112112,VALID,22.9519,VALID,113,VALID,0.478906,
2012-11-26, 00:46:04,VALID,1010.76,VALID,0,VALID,104,VALID,0.112112,VALID,22.9129,VALID,93,VALID,0.766797,
2012-11-26, 00:47:04,VALID,1010.75,VALID,0,VALID,104,VALID,0.112112,VALID,22.9519,VALID,93,VALID,0.433984,
2012-11-26, 00:48:04,VALID,1010.77,VALID,0,VALID,104,VALID,0,VALID,22.9324,VALID,93,VALID,0.296484,
2012-11-26, 00:49:04,VALID,1010.76,VALID,0,VALID,104,VALID,0.112112,VALID,22.9714,VALID,93,VALID,0.565625,
2012-11-26, 00:50:04,VALID,1010.75,VALID,0,VALID,104,VALID,0.112112,VALID,22.9909,VALID,87,VALID,0.771094,
2012-11-26, 00:51:04,VALID,1010.74,VALID,0,VALID,104,VALID,0.112112,VALID,22.9519,VALID,88,VALID,1.08633,
2012-11-26, 00:52:04,VALID,1010.76,VALID,0,VALID,104,VALID,0.112112,VALID,22.9324,VALID,87,VALID,0.698828,
2012-11-26, 00:53:04,VALID,1010.73,VALID,0,VALID,104,VALID,0.112112,VALID,22.9519,VALID,107,VALID,0.819922,
2012-11-26, 00:54:04,VALID,1010.71,VALID,0,VALID,104,VALID,0.112112,VALID,22.9519,VALID,104,VALID,0.692187,
2012-11-26, 00:55:04,VALID,1010.71,VALID,0,VALID,104,VALID,0.112112,VALID,22.9519,VALID,83,VALID,0.877344,
2012-11-26, 00:56:04,VALID,1010.69,VALID,0,VALID,104,VALID,0.112112,VALID,22.9519,VALID,83,VALID,0.672656,
2012-11-26, 00:57:04,VALID,1010.7,VALID,0,VALID,104,VALID,0.112112,VALID,22.9324,VALID,104,VALID,0.574609,
2012-11-26, 00:58:04,VALID,1010.7,VALID,0,VALID,104,VALID,0.112112,VALID,22.9324,VALID,97,VALID,0.539844,
2012-11-26, 00:59:04,VALID,1010.69,VALID,0,VALID,104,VALID,0.112112,VALID,22.9519,VALID,100,VALID,0.571875,
2012-11-26, 01:00:04,VALID,1010.71,VALID,0,VALID,104,VALID,0.112112,VALID,22.9714,VALID,79,VALID,0.774609,
2012-11-26, 01:01:04,VALID,1010.69,VALID,0,VALID,104,VALID,0.112112,VALID,22.8935,VALID,87,VALID,0.522266,
2012-11-26, 01:02:04,VALID,1010.7,VALID,0,VALID,104,VALID,0,VALID,22.9324,VALID,81,VALID,0.515625,
2012-11-26, 01:03:04,VALID,1010.68,VALID,0,VALID,104,VALID,0,VALID,22.9519,VALID,81,VALID,0.407422,
2012-11-26, 01:04:04,VALID,1010.66,VALID,0,VALID,104,VALID,0,VALID,22.9519,VALID,98,VALID,0.693359,
2012-11-26, 01:05:04,VALID,1010.62,VALID,0,VALID,104,VALID,0,VALID,22.9324,VALID,104,VALID,0.976172,
2012-11-26, 01:06:04,VALID,1010.61,VALID,0,VALID,104,VALID,0,VALID,22.9926,VALID,116,VALID,0.604688,
2012-11-26, 01:07:04,VALID,1010.57,VALID,0,VALID,104,VALID,0.112112,VALID,22.9324,VALID,86,VALID,1.09375,
2012-11-26, 01:08:04,VALID,1010.55,VALID,0,VALID,104,VALID,0.112112,VALID,22.9324,VALID,87,VALID,0.633203,
2012-11-26, 01:09:04,VALID,1010.52,VALID,0,VALID,104,VALID,0.112112,VALID,22.9519,VALID,89,VALID,0.64375,
2012-11-26, 01:10:04,VALID,1010.54,VALID,0,VALID,104,VALID,0.112112,VALID,22.9519,VALID,88,VALID,0.576953,
2012-11-26, 01:11:04,VALID,1010.53,VALID,0,VALID,104,VALID,0.112112,VALID,22.9519,VALID,107,VALID,0.730078,
2012-11-26, 01:12:04,VALID,1010.53,VALID,0,VALID,104,VALID,0.112112,VALID,22.9731,VALID,104,VALID,0.287891,
2012-11-26, 01:13:04,VALID,1010.5,VALID,0,VALID,104,VALID,0.112112,VALID,22.9519,VALID,91,VALID,0.514063,
2012-11-26, 01:14:04,VALID,1010.49,VALID,0,VALID,104,VALID,0,VALID,22.8935,VALID,62,VALID,0.419141,
2012-11-26, 01:15:04,VALID,1010.47,VALID,0,VALID,104,VALID,0,VALID,22.9324,VALID,65,VALID,0.634766,
2012-11-26, 01:16:04,VALID,1010.47,VALID,0,VALID,104,VALID,0,VALID,22.9324,VALID,64,VALID,0.725781,
2012-11-26, 01:17:04,VALID,1010.46,VALID,0,VALID,104,VALID,0,VALID,22.9129,VALID,65,VALID,0.853516,
2012-11-26, 01:18:04,VALID,1010.46,VALID,0,VALID,104,VALID,0.112112,VALID,22.8935,VALID,65,VALID,0.652344,
2012-11-26, 01:19:04,VALID,1010.45,VALID,0,VALID,104,VALID,0,VALID,22.9129,VALID,90,VALID,0.683594,
2012-11-26, 01:20:04,VALID,1010.42,VALID,0,VALID,104,VALID,0,VALID,22.9536,VALID,87,VALID,0.475781,
2012-11-26, 01:21:04,VALID,1010.38,VALID,0,VALID,104,VALID,0,VALID,22.9324,VALID,81,VALID,0.310156,
2012-11-26, 01:22:04,VALID,1010.38,VALID,0,VALID,104,VALID,0.112112,VALID,22.9129,VALID,77,VALID,0.976563,
2012-11-26, 01:23:04,VALID,1010.35,VALID,0,VALID,104,VALID,0.112112,VALID,22.9129,VALID,68,VALID,0.7875,
2012-11-26, 01:24:04,VALID,1010.33,VALID,0,VALID,104,VALID,0,VALID,22.8935,VALID,67,VALID,0.383203,
2012-11-26, 01:25:04,VALID,1010.3,VALID,0,VALID,104,VALID,0.112112,VALID,22.874,VALID,67,VALID,0.439453,
2012-11-26, 01:26:04,VALID,1010.27,VALID,0,VALID,104,VALID,0,VALID,22.874,VALID,67,VALID,0.323438,
2012-11-26, 01:27:04,VALID,1010.28,VALID,0,VALID,104,VALID,0,VALID,22.874,VALID,76,VALID,0.450391,
2012-11-26, 01:28:04,VALID,1010.24,VALID,0,VALID,104,VALID,0,VALID,22.8155,VALID,81,VALID,0.557813,
2012-11-26, 01:29:04,VALID,1010.24,VALID,0,VALID,104,VALID,0.112112,VALID,22.8545,VALID,108,VALID,0.323828,
2012-11-26, 01:30:04,VALID,1010.25,VALID,0,VALID,104,VALID,0.112112,VALID,22.8952,VALID,108,VALID,0.208594,
2012-11-26, 01:31:04,VALID,1010.22,VALID,0,VALID,104,VALID,0,VALID,22.8952,VALID,108,VALID,0.2,
2012-11-26, 01:32:04,VALID,1010.2,VALID,0,VALID,104,VALID,0,VALID,22.8562,VALID,108,VALID,0.491797,
2012-11-26, 01:33:04,VALID,1010.21,VALID,0,VALID,104,VALID,0,VALID,22.8952,VALID,108,VALID,0.170312,
2012-11-26, 01:34:04,VALID,1010.18,VALID,0,VALID,104,VALID,0,VALID,22.8952,VALID,108,VALID,0.265625,
2012-11-26, 01:35:04,VALID,1010.19,VALID,0,VALID,104,VALID,0,VALID,22.9147,VALID,108,VALID,0,
2012-11-26, 01:36:04,VALID,1010.16,VALID,0,VALID,104,VALID,0,VALID,22.8757,VALID,108,VALID,0.187891,
2012-11-26, 01:37:04,VALID,1010.15,VALID,0,VALID,104,VALID,0,VALID,22.8775,VALID,108,VALID,0.529688,
2012-11-26, 01:38:04,VALID,1010.15,VALID,0,VALID,104,VALID,0,VALID,22.8368,VALID,101,VALID,0.0558594,
2012-11-26, 01:39:04,VALID,1010.13,VALID,0,VALID,104,VALID,0,VALID,22.8775,VALID,66,VALID,0.763281,
2012-11-26, 01:40:05,VALID,1010.12,VALID,0,VALID,104,VALID,0,VALID,22.8368,VALID,66,VALID,0.880469,
2012-11-26, 01:41:05,VALID,1010.12,VALID,0,VALID,104,VALID,0,VALID,22.8385,VALID,65,VALID,0.734766,
2012-11-26, 01:42:05,VALID,1010.14,VALID,0,VALID,104,VALID,0,VALID,22.858,VALID,80,VALID,0.553906,
2012-11-26, 01:43:05,VALID,1010.09,VALID,0,VALID,104,VALID,0,VALID,22.8173,VALID,82,VALID,0.830469,
2012-11-26, 01:44:05,VALID,1010.08,VALID,0,VALID,104,VALID,0,VALID,22.8368,VALID,70,VALID,0.617969,
2012-11-26, 01:45:05,VALID,1010.05,VALID,0,VALID,104,VALID,0,VALID,22.8368,VALID,66,VALID,0.326172,
2012-11-26, 01:46:05,VALID,1010.03,VALID,0,VALID,104,VALID,0,VALID,22.835,VALID,65,VALID,0.566797,
2012-11-26, 01:47:05,VALID,1010.02,VALID,0,VALID,104,VALID,0,VALID,22.835,VALID,90,VALID,0.775391,
2012-11-26, 01:48:05,VALID,1009.99,VALID,0,VALID,104,VALID,0,VALID,22.8155,VALID,85,VALID,0.81875,
2012-11-26, 01:49:05,VALID,1009.98,VALID,0,VALID,104,VALID,0,VALID,22.8155,VALID,99,VALID,0.549609,
2012-11-26, 01:50:05,VALID,1009.94,VALID,0,VALID,104,VALID,0.112112,VALID,22.8545,VALID,99,VALID,0.216797,
2012-11-26, 01:51:05,VALID,1009.91,VALID,0,VALID,104,VALID,0,VALID,22.8757,VALID,99,VALID,0,
2012-11-26, 01:52:05,VALID,1009.88,VALID,0,VALID,104,VALID,0,VALID,22.835,VALID,99,VALID,0.294922,
2012-11-26, 01:53:05,VALID,1009.85,VALID,0,VALID,104,VALID,0,VALID,22.874,VALID,99,VALID,0.0460938,
2012-11-26, 01:54:05,VALID,1009.85,VALID,0,VALID,104,VALID,0,VALID,22.8545,VALID,99,VALID,0.486328,
2012-11-26, 01:55:05,VALID,1009.85,VALID,0,VALID,104,VALID,0,VALID,22.8545,VALID,92,VALID,0.464063,
2012-11-26, 01:56:05,VALID,1009.82,VALID,0,VALID,104,VALID,0.112112,VALID,22.835,VALID,68,VALID,0.373437,
2012-11-26, 01:57:05,VALID,1009.8,VALID,0,VALID,104,VALID,0,VALID,22.8757,VALID,68,VALID,0.439063,
2012-11-26, 01:58:05,VALID,1009.8,VALID,0,VALID,104,VALID,0,VALID,22.835,VALID,68,VALID,0.492188,
2012-11-26, 01:59:05,VALID,1009.8,VALID,0,VALID,104,VALID,0,VALID,22.874,VALID,68,VALID,0.704297,
2012-11-26, 02:00:05,VALID,1009.75,VALID,0,VALID,104,VALID,0,VALID,22.835,VALID,69,VALID,0.287891,
2012-11-26, 02:01:05,VALID,1009.75,VALID,0,VALID,104,VALID,0.112112,VALID,22.835,VALID,79,VALID,0.416016,
2012-11-26, 02:02:05,VALID,1009.74,VALID,0,VALID,104,VALID,0,VALID,22.8562,VALID,79,VALID,0.141016,
2012-11-26, 02:03:05,VALID,1009.71,VALID,0,VALID,104,VALID,0,VALID,22.8757,VALID,79,VALID,0.121094,
2012-11-26, 02:04:05,VALID,1009.71,VALID,0,VALID,104,VALID,0,VALID,22.8368,VALID,79,VALID,0.373828,
2012-11-26, 02:05:05,VALID,1009.7,VALID,0,VALID,104,VALID,0,VALID,22.835,VALID,79,VALID,0.375,
2012-11-26, 02:06:05,VALID,1009.69,VALID,0,VALID,104,VALID,0,VALID,22.835,VALID,79,VALID,0.142578,
2012-11-26, 02:07:05,VALID,1009.67,VALID,0,VALID,104,VALID,0.112112,VALID,22.8173,VALID,79,VALID,0.348828,
2012-11-26, 02:08:05,VALID,1009.64,VALID,0,VALID,104,VALID,0.112112,VALID,22.8155,VALID,79,VALID,0,
2012-11-26, 02:09:05,VALID,1009.66,VALID,0,VALID,104,VALID,0.112112,VALID,22.8173,VALID,79,VALID,0.408984,
2012-11-26, 02:10:05,VALID,1009.61,VALID,0,VALID,104,VALID,0,VALID,22.7961,VALID,77,VALID,0.382813,
2012-11-26, 02:11:05,VALID,1009.6,VALID,0,VALID,104,VALID,0.112112,VALID,22.7961,VALID,77,VALID,0,
2012-11-26, 02:12:05,VALID,1009.63,VALID,0,VALID,104,VALID,0,VALID,22.7961,VALID,78,VALID,0.583203,
2012-11-26, 02:13:05,VALID,1009.62,VALID,0,VALID,104,VALID,0,VALID,22.7978,VALID,79,VALID,0.392969,
2012-11-26, 02:14:05,VALID,1009.63,VALID,0,VALID,104,VALID,0,VALID,22.7978,VALID,78,VALID,0.346875,
2012-11-26, 02:15:05,VALID,1009.63,VALID,0,VALID,104,VALID,0,VALID,22.7766,VALID,78,VALID,0.0695312,
2012-11-26, 02:16:05,VALID,1009.64,VALID,0,VALID,104,VALID,0,VALID,22.7766,VALID,78,VALID,0.0046875,
2012-11-26, 02:17:05,VALID,1009.66,VALID,0,VALID,104,VALID,0,VALID,22.7978,VALID,75,VALID,0.452344,
2012-11-26, 02:18:05,VALID,1009.65,VALID,0,VALID,104,VALID,0,VALID,22.7766,VALID,75,VALID,0.278906,
2012-11-26, 02:19:05,VALID,1009.66,VALID,0,VALID,104,VALID,0,VALID,22.7978,VALID,75,VALID,0,
2012-11-26, 02:20:05,VALID,1009.66,VALID,0,VALID,104,VALID,0,VALID,22.7766,VALID,75,VALID,0,
2012-11-26, 02:21:05,VALID,1009.65,VALID,0,VALID,104,VALID,0,VALID,22.7571,VALID,75,VALID,0,
2012-11-26, 02:22:05,VALID,1009.65,VALID,0,VALID,104,VALID,0,VALID,22.7766,VALID,75,VALID,0,
2012-11-26, 02:23:05,VALID,1009.65,VALID,0,VALID,104,VALID,0,VALID,22.7766,VALID,75,VALID,0,
2012-11-26, 02:24:05,VALID,1009.64,VALID,0,VALID,104,VALID,0,VALID,22.7766,VALID,75,VALID,0,
2012-11-26, 02:25:05,VALID,1009.65,VALID,0,VALID,104,VALID,0,VALID,22.7783,VALID,75,VALID,0,
2012-11-26, 02:26:05,VALID,1009.65,VALID,0,VALID,104,VALID,0,VALID,22.7766,VALID,75,VALID,0,
2012-11-26, 02:27:05,VALID,1009.65,VALID,0,VALID,104,VALID,0.112112,VALID,22.7978,VALID,75,VALID,0,
2012-11-26, 02:28:05,VALID,1009.64,VALID,0,VALID,104,VALID,0,VALID,22.7571,VALID,75,VALID,0,
2012-11-26, 02:29:05,VALID,1009.63,VALID,0,VALID,104,VALID,0,VALID,22.7766,VALID,75,VALID,0,
2012-11-26, 02:30:05,VALID,1009.64,VALID,0,VALID,104,VALID,0.112112,VALID,22.7766,VALID,75,VALID,0,
2012-11-26, 02:31:05,VALID,1009.62,VALID,0,VALID,104,VALID,0,VALID,22.7783,VALID,75,VALID,0,
2012-11-26, 02:32:05,VALID,1009.64,VALID,0,VALID,104,VALID,0,VALID,22.7783,VALID,75,VALID,0.146484,
2012-11-26, 02:33:05,VALID,1009.62,VALID,0,VALID,104,VALID,0.112112,VALID,22.7588,VALID,76,VALID,0.234766,
2012-11-26, 02:34:05,VALID,1009.63,VALID,0,VALID,104,VALID,0.112112,VALID,22.7376,VALID,75,VALID,0.258984,
2012-11-26, 02:35:05,VALID,1009.59,VALID,0,VALID,104,VALID,0.112112,VALID,22.7376,VALID,75,VALID,0,
2012-11-26, 02:36:05,VALID,1009.6,VALID,0,VALID,104,VALID,0,VALID,22.7376,VALID,76,VALID,0.0226563,
2012-11-26, 02:37:05,VALID,1009.59,VALID,0,VALID,104,VALID,0.112112,VALID,22.7182,VALID,75,VALID,0.482422,
2012-11-26, 02:38:05,VALID,1009.59,VALID,0,VALID,104,VALID,0.112112,VALID,22.7783,VALID,75,VALID,0.185156,
2012-11-26, 02:39:05,VALID,1009.61,VALID,0,VALID,104,VALID,0.112112,VALID,22.7376,VALID,75,VALID,0,
2012-11-26, 02:40:05,VALID,1009.59,VALID,0,VALID,104,VALID,0.112112,VALID,22.7376,VALID,75,VALID,0,
2012-11-26, 02:41:05,VALID,1009.61,VALID,0,VALID,104,VALID,0,VALID,22.7376,VALID,94,VALID,0.782422,
2012-11-26, 02:42:05,VALID,1009.63,VALID,0,VALID,104,VALID,0,VALID,22.7394,VALID,99,VALID,0.137891,
2012-11-26, 02:43:05,VALID,1009.62,VALID,0,VALID,104,VALID,0,VALID,22.7588,VALID,99,VALID,0.345313,
2012-11-26, 02:44:05,VALID,1009.61,VALID,0,VALID,104,VALID,0.112112,VALID,22.7588,VALID,99,VALID,0.0988281,
2012-11-26, 02:45:05,VALID,1009.58,VALID,0,VALID,104,VALID,0,VALID,22.7783,VALID,100,VALID,0,
2012-11-26, 02:46:05,VALID,1009.57,VALID,0,VALID,104,VALID,0,VALID,22.7783,VALID,100,VALID,0.318359,
2012-11-26, 02:47:05,VALID,1009.58,VALID,0,VALID,104,VALID,0,VALID,22.7571,VALID,99,VALID,0.213672,
2012-11-26, 02:48:05,VALID,1009.57,VALID,0,VALID,104,VALID,0,VALID,22.7571,VALID,106,VALID,0.773828,
2012-11-26, 02:49:05,VALID,1009.55,VALID,0,VALID,104,VALID,0,VALID,22.7588,VALID,95,VALID,0.716016,
2012-11-26, 02:50:05,VALID,1009.53,VALID,0,VALID,104,VALID,0,VALID,22.7588,VALID,98,VALID,0.244922,
2012-11-26, 02:51:05,VALID,1009.56,VALID,0,VALID,104,VALID,0,VALID,22.7766,VALID,98,VALID,0.239453,
2012-11-26, 02:52:05,VALID,1009.54,VALID,0,VALID,104,VALID,0,VALID,22.7783,VALID,99,VALID,0.453516,
2012-11-26, 02:53:05,VALID,1009.58,VALID,0,VALID,104,VALID,0,VALID,22.7961,VALID,98,VALID,0.335938,
2012-11-26, 02:54:05,VALID,1009.56,VALID,0,VALID,104,VALID,0,VALID,22.7783,VALID,109,VALID,0.689453,
2012-11-26, 02:55:05,VALID,1009.57,VALID,0,VALID,104,VALID,0,VALID,22.7766,VALID,128,VALID,0.453906,
2012-11-26, 02:56:05,VALID,1009.57,VALID,0,VALID,104,VALID,0.112112,VALID,22.7571,VALID,128,VALID,0.470313,
2012-11-26, 02:57:05,VALID,1009.54,VALID,0,VALID,104,VALID,0,VALID,22.7588,VALID,97,VALID,0.189453,
2012-11-26, 02:58:05,VALID,1009.55,VALID,0,VALID,104,VALID,0,VALID,22.7783,VALID,97,VALID,0.585547,
2012-11-26, 02:59:05,VALID,1009.54,VALID,0,VALID,104,VALID,0,VALID,22.7571,VALID,97,VALID,0.562109,
2012-11-26, 03:00:05,VALID,1009.57,VALID,0,VALID,104,VALID,0,VALID,22.7376,VALID,88,VALID,0.584375,
2012-11-26, 03:01:05,VALID,1009.55,VALID,0,VALID,104,VALID,0,VALID,22.7376,VALID,82,VALID,0.837109,
2012-11-26, 03:02:05,VALID,1009.57,VALID,0,VALID,104,VALID,0.112112,VALID,22.7376,VALID,84,VALID,0.695313,
2012-11-26, 03:03:05,VALID,1009.53,VALID,0,VALID,104,VALID,0,VALID,22.7394,VALID,84,VALID,0.544531,
2012-11-26, 03:04:05,VALID,1009.56,VALID,0,VALID,104,VALID,0,VALID,22.7394,VALID,87,VALID,0.976172,
2012-11-26, 03:05:05,VALID,1009.56,VALID,0,VALID,104,VALID,0.112112,VALID,22.7199,VALID,87,VALID,0.774219,
2012-11-26, 03:06:05,VALID,1009.51,VALID,0,VALID,104,VALID,0,VALID,22.7182,VALID,91,VALID,0.723828,
2012-11-26, 03:07:05,VALID,1009.52,VALID,0,VALID,104,VALID,0.112112,VALID,22.7376,VALID,87,VALID,0.279687,
2012-11-26, 03:08:05,VALID,1009.53,VALID,0,VALID,104,VALID,0.112112,VALID,22.7571,VALID,86,VALID,0.298828,
2012-11-26, 03:09:05,VALID,1009.53,VALID,0,VALID,104,VALID,0.112112,VALID,22.7182,VALID,73,VALID,0.348047,
2012-11-26, 03:10:05,VALID,1009.51,VALID,0,VALID,104,VALID,0.112112,VALID,22.7376,VALID,71,VALID,0.425,
2012-11-26, 03:11:05,VALID,1009.49,VALID,0,VALID,104,VALID,0.112112,VALID,22.7182,VALID,71,VALID,0.519922,
2012-11-26, 03:12:05,VALID,1009.5,VALID,0,VALID,104,VALID,0.112112,VALID,22.7199,VALID,60,VALID,0.478516,
2012-11-26, 03:13:05,VALID,1009.49,VALID,0,VALID,104,VALID,0,VALID,22.6792,VALID,64,VALID,0.542188,
2012-11-26, 03:14:05,VALID,1009.47,VALID,0,VALID,104,VALID,0,VALID,22.7182,VALID,64,VALID,0.647656,
2012-11-26, 03:15:05,VALID,1009.49,VALID,0,VALID,104,VALID,0,VALID,22.7004,VALID,64,VALID,0.518359,
2012-11-26, 03:16:05,VALID,1009.46,VALID,0,VALID,104,VALID,0,VALID,22.7199,VALID,65,VALID,0.874219,
2012-11-26, 03:17:05,VALID,1009.48,VALID,0,VALID,104,VALID,0,VALID,22.7004,VALID,65,VALID,0.464844,
2012-11-26, 03:18:05,VALID,1009.47,VALID,0,VALID,104,VALID,0,VALID,22.6614,VALID,64,VALID,0.428516,
2012-11-26, 03:19:05,VALID,1009.47,VALID,0,VALID,104,VALID,0,VALID,22.6614,VALID,88,VALID,0.65625,
2012-11-26, 03:20:05,VALID,1009.45,VALID,0,VALID,104,VALID,0,VALID,22.6225,VALID,76,VALID,0.642187,
2012-11-26, 03:21:05,VALID,1009.46,VALID,0,VALID,104,VALID,0,VALID,22.6437,VALID,74,VALID,0.245703,
2012-11-26, 03:22:05,VALID,1009.48,VALID,0,VALID,104,VALID,0,VALID,22.6614,VALID,73,VALID,0.101953,
2012-11-26, 03:23:05,VALID,1009.48,VALID,0,VALID,104,VALID,0,VALID,22.6614,VALID,73,VALID,0.532031,
2012-11-26, 03:24:05,VALID,1009.45,VALID,0,VALID,104,VALID,0,VALID,22.6826,VALID,70,VALID,0.908594,
2012-11-26, 03:25:05,VALID,1009.46,VALID,0,VALID,104,VALID,0,VALID,22.642,VALID,60,VALID,0.847656,
2012-11-26, 03:26:05,VALID,1009.47,VALID,0,VALID,104,VALID,0,VALID,22.6242,VALID,64,VALID,0.771484,
2012-11-26, 03:27:05,VALID,1009.48,VALID,0,VALID,104,VALID,0,VALID,22.6437,VALID,67,VALID,0.614062,
2012-11-26, 03:28:05,VALID,1009.47,VALID,0,VALID,104,VALID,0,VALID,22.603,VALID,79,VALID,0.814453,
2012-11-26, 03:29:05,VALID,1009.45,VALID,0,VALID,104,VALID,0,VALID,22.603,VALID,75,VALID,0.487109,
2012-11-26, 03:30:05,VALID,1009.47,VALID,0,VALID,104,VALID,0,VALID,22.6242,VALID,66,VALID,1.14766,
2012-11-26, 03:31:05,VALID,1009.48,VALID,0,VALID,104,VALID,0,VALID,22.6225,VALID,67,VALID,0.609375,
2012-11-26, 03:32:05,VALID,1009.47,VALID,0,VALID,104,VALID,0.112112,VALID,22.6013,VALID,67,VALID,0.100781,
2012-11-26, 03:33:05,VALID,1009.48,VALID,0,VALID,104,VALID,0,VALID,22.6225,VALID,63,VALID,0.498437,
2012-11-26, 03:34:05,VALID,1009.51,VALID,0,VALID,104,VALID,0.112112,VALID,22.6225,VALID,63,VALID,0.423438,
2012-11-26, 03:35:05,VALID,1009.53,VALID,0,VALID,104,VALID,0,VALID,22.5818,VALID,64,VALID,0.405469,
2012-11-26, 03:36:05,VALID,1009.56,VALID,0,VALID,104,VALID,0,VALID,22.5835,VALID,64,VALID,0.141406,
2012-11-26, 03:37:05,VALID,1009.59,VALID,0,VALID,104,VALID,0,VALID,22.5835,VALID,64,VALID,0.00195313,
2012-11-26, 03:38:05,VALID,1009.59,VALID,0,VALID,104,VALID,0.112112,VALID,22.5623,VALID,64,VALID,0.440234,
2012-11-26, 03:39:05,VALID,1009.6,VALID,0,VALID,104,VALID,0,VALID,22.5835,VALID,55,VALID,0.351953,
2012-11-26, 03:40:05,VALID,1009.65,VALID,0,VALID,104,VALID,0.112112,VALID,22.5623,VALID,56,VALID,0.179688,
2012-11-26, 03:41:05,VALID,1009.68,VALID,0,VALID,104,VALID,0.112112,VALID,22.5818,VALID,68,VALID,0.673828,
2012-11-26, 03:42:05,VALID,1009.69,VALID,0,VALID,104,VALID,0.112112,VALID,22.5835,VALID,70,VALID,0.539063,
2012-11-26, 03:43:05,VALID,1009.71,VALID,0,VALID,104,VALID,0.112112,VALID,22.5835,VALID,70,VALID,0.31875,
2012-11-26, 03:44:05,VALID,1009.73,VALID,0,VALID,104,VALID,0,VALID,22.5429,VALID,70,VALID,0.251953,
2012-11-26, 03:45:05,VALID,1009.73,VALID,0,VALID,104,VALID,0,VALID,22.5446,VALID,56,VALID,1.00586,
2012-11-26, 03:46:05,VALID,1009.78,VALID,0,VALID,104,VALID,0.112112,VALID,22.5234,VALID,73,VALID,0.794141,
2012-11-26, 03:47:05,VALID,1009.76,VALID,0,VALID,104,VALID,0.112112,VALID,22.5429,VALID,65,VALID,0.580078,
2012-11-26, 03:48:05,VALID,1009.79,VALID,0,VALID,104,VALID,0.112112,VALID,22.564,VALID,64,VALID,0.594922,
2012-11-26, 03:49:05,VALID,1009.81,VALID,0,VALID,104,VALID,0.112112,VALID,22.5623,VALID,64,VALID,0.826172,
2012-11-26, 03:50:05,VALID,1009.81,VALID,0,VALID,104,VALID,0,VALID,22.564,VALID,62,VALID,0.795703,